Weather History for Two Harbors, MN

Change the Weather History Date:

Monday, May 27, 2013

  Actual Average Record
Temperature  
Mean Temperature 50 °F -  
Max Temperature 60 °F 59 °F 87 °F (1966)
Min Temperature 39 °F 40 °F 30 °F (2008)
Degree Days  
Heating Degree Days 16    
Moisture  
Dew Point 34 °F    
Average Humidity 51    
Maximum Humidity 66    
Minimum Humidity 39    
Precipitation  
Precipitation 0.00 in - - ()
Sea Level Pressure  
Sea Level Pressure 30.02 in    
Wind  
Wind Speed 8 mph (NE)    
Max Wind Speed 20 mph    
Max Gust Speed 26 mph    
Visibility 10 miles    
Events      
Averages and records for this station are not official NWS values.
T = Trace of Precipitation, MM = Missing Value Source: NWS Daily Summary

Daily Weather History Graph

Daily Weather History Graph

Search for Another Location

Airport:

Trip Planner

Search our weather history database for the weather conditions in past years. The results will help you decide how hot, cold, wet, or windy it might be!

Date:

Astronomy

May. 27, 2013 Rise Set
Actual Time 5:18 AM CDT 8:49 PM CDT
Civil Twilight 4:41 AM CDT 9:28 PM CDT
Nautical Twilight 3:50 AM CDT 10:18 PM CDT
Astronomical Twilight 2:43 AM CDT 11:26 PM CDT
Moon 11:24 PM CDT (5/27) 7:59 AM CDT (5/27)
Length of Visible Light 16h 47m
Length of Day
15h 31m
Waning Gibbous, 91% of the Moon is Illuminated
May 27
Waning Gibbous
May 31
Last Quarter
Jun 8
New
Jun 16
First Quarter
Jun 23
Full

Hourly Weather History & Observations

Time (CDT) Temp. Windchill Dew Point Humidity Pressure Visibility Wind Dir Wind Speed Gust Speed Precip Events Conditions
12:11 AM 48.2 °F - 28.4 °F 46% 30.14 in 10.0 mi NE 5.8 mph - N/A   Clear
12:32 AM 48.2 °F - 28.4 °F 46% 30.12 in 10.0 mi NE 8.1 mph - N/A   Clear
12:51 AM 46.4 °F 42.4 °F 28.4 °F 50% 30.10 in 10.0 mi NE 8.1 mph - N/A   Clear
1:11 AM 46.4 °F 43.5 °F 28.4 °F 50% 30.10 in 10.0 mi NE 5.8 mph - N/A   Clear
1:32 AM 46.4 °F 44.3 °F 28.4 °F 50% 30.11 in 10.0 mi NE 4.6 mph - N/A   Clear
1:51 AM 44.6 °F - 28.4 °F 53% 30.12 in 10.0 mi Calm Calm - N/A   Clear
2:11 AM 42.8 °F 41.1 °F 28.4 °F 57% 30.11 in 10.0 mi NE 3.5 mph - N/A   Clear
2:32 AM 42.8 °F 41.1 °F 26.6 °F 53% 30.10 in 10.0 mi NE 3.5 mph - N/A   Clear
2:51 AM 42.8 °F - 28.4 °F 57% 30.09 in 10.0 mi Calm Calm - N/A   Clear
3:11 AM 42.8 °F 40.1 °F 28.4 °F 57% 30.10 in 10.0 mi NNE 4.6 mph - N/A   Clear
3:32 AM 41.0 °F 38.0 °F 28.4 °F 61% 30.10 in 10.0 mi North 4.6 mph - N/A   Clear
3:51 AM 42.8 °F 40.1 °F 28.4 °F 57% 30.09 in 10.0 mi NNE 4.6 mph - N/A   Clear
4:11 AM 42.8 °F 39.3 °F 28.4 °F 57% 30.09 in 10.0 mi NNE 5.8 mph - N/A   Clear
4:32 AM 41.0 °F 38.0 °F 28.4 °F 61% 30.08 in 10.0 mi North 4.6 mph - N/A   Clear
4:51 AM 39.2 °F 37.0 °F 28.4 °F 65% 30.08 in 10.0 mi North 3.5 mph - N/A   Clear
5:11 AM 42.8 °F 41.1 °F 30.2 °F 61% 30.08 in 10.0 mi NNE 3.5 mph - N/A   Clear
5:32 AM 42.8 °F 40.1 °F 30.2 °F 61% 30.08 in 10.0 mi NNE 4.6 mph - N/A   Clear
5:51 AM 41.0 °F 39.0 °F 30.2 °F 65% 30.10 in 10.0 mi NNE 3.5 mph - N/A   Clear
6:11 AM 42.8 °F 40.1 °F 32.0 °F 66% 30.10 in 10.0 mi NNE 4.6 mph - N/A   Clear
6:32 AM 44.6 °F 43.1 °F 33.8 °F 66% 30.10 in 10.0 mi ENE 3.5 mph - N/A   Clear
6:51 AM 46.4 °F 43.5 °F 33.8 °F 62% 30.10 in 10.0 mi NE 5.8 mph - N/A   Clear
7:11 AM 46.4 °F 42.9 °F 33.8 °F 62% 30.10 in 10.0 mi NE 6.9 mph - N/A   Clear
7:31 AM 48.2 °F - 35.6 °F 62% 30.10 in 10.0 mi ENE 6.9 mph - N/A   Scattered Clouds
7:51 AM 48.2 °F - 35.6 °F 62% 30.10 in 10.0 mi NE 6.9 mph - N/A   Mostly Cloudy
8:11 AM 51.8 °F - 37.4 °F 58% 30.10 in 10.0 mi ENE 8.1 mph - N/A   Scattered Clouds
8:31 AM 51.8 °F - 37.4 °F 58% 30.09 in 10.0 mi NE 9.2 mph 16.1 mph N/A   Mostly Cloudy
8:51 AM 53.6 °F - 37.4 °F 54% 30.08 in 10.0 mi ENE 10.4 mph - N/A   Mostly Cloudy
9:11 AM 53.6 °F - 37.4 °F 54% 30.08 in 10.0 mi ENE 12.7 mph - N/A   Mostly Cloudy
9:31 AM 55.4 °F - 39.2 °F 54% 30.07 in 10.0 mi East 10.4 mph 18.4 mph N/A   Mostly Cloudy
9:51 AM 55.4 °F - 39.2 °F 54% 30.06 in 10.0 mi East 11.5 mph - N/A   Scattered Clouds
10:11 AM 57.2 °F - 39.2 °F 51% 30.05 in 10.0 mi East 12.7 mph - N/A   Scattered Clouds
10:32 AM 57.2 °F - 39.2 °F 51% 30.05 in 10.0 mi ENE 11.5 mph 16.1 mph N/A   Mostly Cloudy
10:51 AM 57.2 °F - 37.4 °F 48% 30.05 in 10.0 mi East 9.2 mph 17.3 mph N/A   Overcast
11:11 AM 55.4 °F - 37.4 °F 51% 30.05 in 10.0 mi East 11.5 mph - N/A   Overcast
11:31 AM 55.4 °F - 37.4 °F 51% 30.04 in 10.0 mi ENE 15.0 mph 19.6 mph N/A   Overcast
11:51 AM 57.2 °F - 37.4 °F 48% 30.03 in 10.0 mi ENE 13.8 mph - N/A   Overcast
12:11 PM 55.4 °F - 37.4 °F 51% 30.02 in 10.0 mi East 16.1 mph 20.7 mph N/A   Overcast
12:31 PM 55.4 °F - 37.4 °F 51% 30.02 in 10.0 mi ENE 13.8 mph 20.7 mph N/A   Overcast
12:52 PM 55.4 °F - 35.6 °F 47% 30.01 in 10.0 mi ENE 15.0 mph 20.7 mph N/A   Overcast
1:11 PM 55.4 °F - 35.6 °F 47% 30.00 in 10.0 mi ENE 15.0 mph 20.7 mph N/A   Overcast
1:31 PM 55.4 °F - 35.6 °F 47% 30.00 in 10.0 mi ENE 12.7 mph 25.3 mph N/A   Overcast
1:52 PM 55.4 °F - 35.6 °F 47% 29.99 in 10.0 mi ENE 15.0 mph 24.2 mph N/A   Overcast
2:11 PM 55.4 °F - 35.6 °F 47% 29.98 in 10.0 mi ENE 19.6 mph 24.2 mph N/A   Overcast
2:31 PM 55.4 °F - 33.8 °F 44% 29.99 in 10.0 mi ENE 16.1 mph 24.2 mph N/A   Overcast
2:51 PM 55.4 °F - 33.8 °F 44% 29.99 in 10.0 mi ENE 9.2 mph 18.4 mph N/A   Overcast
3:11 PM 55.4 °F - 33.8 °F 44% 29.99 in 10.0 mi ENE 9.2 mph 17.3 mph N/A   Overcast
3:32 PM 57.2 °F - 35.6 °F 44% 29.99 in 10.0 mi ENE 12.7 mph 18.4 mph N/A   Overcast
3:51 PM 57.2 °F - 35.6 °F 44% 29.98 in 10.0 mi ENE 10.4 mph 16.1 mph N/A   Overcast
4:11 PM 57.2 °F - 35.6 °F 44% 29.97 in 10.0 mi ENE 15.0 mph 21.9 mph N/A   Overcast
4:31 PM 59.0 °F - 35.6 °F 42% 29.96 in 10.0 mi ENE 11.5 mph - N/A   Overcast
4:51 PM 60.8 °F - 35.6 °F 39% 29.94 in 10.0 mi ENE 17.3 mph - N/A   Mostly Cloudy
5:11 PM 60.8 °F - 35.6 °F 39% 29.95 in 10.0 mi ENE 15.0 mph 20.7 mph N/A   Mostly Cloudy
5:31 PM 60.8 °F - 35.6 °F 39% 29.95 in 10.0 mi ENE 15.0 mph 23.0 mph N/A   Mostly Cloudy
5:51 PM 60.8 °F - 35.6 °F 39% 29.94 in 10.0 mi ENE 13.8 mph 20.7 mph N/A   Scattered Clouds
6:11 PM 60.8 °F - 35.6 °F 39% 29.93 in 10.0 mi ENE 19.6 mph 24.2 mph N/A   Scattered Clouds
6:31 PM 60.8 °F - 35.6 °F 39% 29.93 in 10.0 mi East 15.0 mph 23.0 mph N/A   Clear
6:51 PM 59.0 °F - 35.6 °F 42% 29.92 in 10.0 mi ENE 18.4 mph 26.5 mph N/A   Clear
7:11 PM 57.2 °F - 35.6 °F 44% 29.91 in 10.0 mi East 13.8 mph 24.2 mph N/A   Clear
7:31 PM 55.4 °F - 35.6 °F 47% 29.91 in 10.0 mi ENE 10.4 mph 16.1 mph N/A   Scattered Clouds
7:51 PM 55.4 °F - 35.6 °F 47% 29.91 in 10.0 mi ENE 15.0 mph 19.6 mph N/A   Mostly Cloudy
8:11 PM 55.4 °F - 35.6 °F 47% 29.92 in 10.0 mi ENE 11.5 mph - N/A   Overcast
8:32 PM 55.4 °F - 35.6 °F 47% 29.91 in 10.0 mi NE 11.5 mph 16.1 mph N/A   Overcast
8:51 PM 55.4 °F - 35.6 °F 47% 29.91 in 10.0 mi NE 8.1 mph - N/A   Overcast
9:11 PM 53.6 °F - 35.6 °F 51% 29.91 in 10.0 mi NE 8.1 mph - N/A   Overcast
9:32 PM 53.6 °F - 35.6 °F 51% 29.92 in 10.0 mi NE 5.8 mph - N/A   Overcast
9:51 PM 53.6 °F - 35.6 °F 51% 29.91 in 10.0 mi NE 8.1 mph - N/A   Overcast
10:11 PM 53.6 °F - 35.6 °F 51% 29.91 in 10.0 mi NE 5.8 mph - N/A   Overcast
10:32 PM 53.6 °F - 35.6 °F 51% 29.91 in 10.0 mi NE 4.6 mph - N/A   Mostly Cloudy
10:51 PM 51.8 °F - 35.6 °F 54% 29.91 in 10.0 mi ENE 5.8 mph - N/A   Overcast
11:11 PM 51.8 °F - 35.6 °F 54% 29.91 in 10.0 mi ENE 4.6 mph - N/A   Overcast
11:31 PM 51.8 °F - 35.6 °F 54% 29.90 in 10.0 mi East 3.5 mph - N/A   Overcast
11:51 PM 48.2 °F - 35.6 °F 62% 29.89 in 10.0 mi ENE 5.8 mph - N/A   Overcast